Milan, NH

1:30 PM EDT on August 25, 2016 (GMT -0400)
Berlin Municipal

Weather History for KBML - August, 2013

Change the Weather History Date:

Wednesday, August 28, 2013

  Actual Average Record
Temperature  
Mean Temperature 72 °F -  
Max Temperature 88 °F 73 °F 88 °F (2013)
Min Temperature 57 °F 45 °F 37 °F (2003)
Cooling Degree Days 6    
Growing Degree Days 22 (Base 50)    
Moisture  
Dew Point 61 °F    
Average Humidity 87    
Maximum Humidity 100    
Minimum Humidity 40    
Precipitation  
Precipitation 0.07 in - - ()
Sea Level Pressure  
Sea Level Pressure 29.95 in    
Wind  
Wind Speed 1 mph (East)    
Max Wind Speed 9 mph    
Max Gust Speed 20 mph    
Visibility 6 miles    
Events Fog , Rain , Thunderstorm    
Averages and records for this station are not official NWS values.
T = Trace of Precipitation, MM = Missing Value Source: NWS Daily Summary

Daily Weather History Graph

Daily Weather History Graph

Search for Another Location

Airport or City:

Trip Planner

Search our weather history database for the weather conditions in past years. The results will help you decide how hot, cold, wet, or windy it might be!

Date:

Astronomy

Aug. 28, 2013 Rise Set
Actual Time 6:02 AM EDT 7:28 PM EDT
Civil Twilight 5:32 AM EDT 7:58 PM EDT
Nautical Twilight 4:55 AM EDT 8:34 PM EDT
Astronomical Twilight 4:16 AM EDT 9:13 PM EDT
Moon 11:46 PM EDT (8/28) 2:09 PM EDT (8/28)
Length of Visible Light 14h 25m
Length of Day
13h 25m
Waning Gibbous, 47% of the Moon is Illuminated
Aug 28
Waning Gibbous
Sep 5
New
Sep 12
First Quarter
Sep 19
Full
Sep 26
Last Quarter

Hourly Weather History & Observations

Time (EDT) Temp. Heat Index Dew Point Humidity Pressure Visibility Wind Dir Wind Speed Gust Speed Precip Events Conditions
12:45 AM 57.2 °F - 55.4 °F 94% 29.94 in 5.0 mi Calm Calm - N/A   Partly Cloudy
12:52 AM 60.1 °F - 57.9 °F 93% 29.93 in 7.0 mi Calm Calm - N/A   Scattered Clouds
1:10 AM 57.2 °F - 55.4 °F 94% 29.94 in 6.0 mi Calm Calm - N/A   Mostly Cloudy
1:18 AM 57.2 °F - 55.4 °F 94% 29.94 in 7.0 mi Calm Calm - N/A   Mostly Cloudy
1:22 AM 57.2 °F - 55.4 °F 94% 29.94 in 1.0 mi Calm Calm - N/A   Mist
1:26 AM 57.2 °F - 57.2 °F 100% 29.94 in 0.2 mi Calm Calm - N/A Fog Fog
1:52 AM 59.0 °F - 59.0 °F 100% 29.92 in 0.2 mi Calm Calm - N/A Fog Fog
2:41 AM 59.0 °F - 57.2 °F 94% 29.93 in 0.5 mi Calm Calm - N/A Fog Fog
2:52 AM 57.9 °F - 57.9 °F 100% 29.92 in 0.2 mi Calm Calm - N/A Fog Fog
3:52 AM 57.9 °F - 57.9 °F 100% 29.92 in 0.2 mi Calm Calm - N/A Fog Fog
4:49 AM 57.2 °F - 57.2 °F 100% 29.93 in 0.2 mi Calm Calm - N/A Fog Fog
4:52 AM 57.0 °F - 57.0 °F 100% 29.92 in 0.2 mi Calm Calm - N/A Fog Fog
5:05 AM 57.2 °F - 57.2 °F 100% 29.93 in 0.2 mi Calm Calm - N/A Fog Fog
5:52 AM 57.9 °F - 57.9 °F 100% 29.93 in 0.2 mi Calm Calm - N/A Fog Fog
6:52 AM 57.9 °F - 57.9 °F 100% 29.95 in 0.2 mi Calm Calm - N/A Fog Fog
7:41 AM 59.0 °F - 59.0 °F 100% 29.95 in 0.8 mi Calm Calm - N/A   Overcast
7:45 AM 60.8 °F - 59.0 °F 94% 29.95 in 1.5 mi Calm Calm - N/A   Overcast
7:52 AM 60.1 °F - 59.0 °F 96% 29.95 in 1.8 mi Calm Calm - N/A   Overcast
7:58 AM 60.8 °F - 59.0 °F 94% 29.95 in 3.0 mi Calm Calm - N/A   Overcast
8:11 AM 60.8 °F - 60.8 °F 100% 29.95 in 1.8 mi Calm Calm - N/A   Overcast
8:17 AM 60.8 °F - 60.8 °F 100% 29.95 in 0.8 mi Calm Calm - N/A   Overcast
8:29 AM 60.8 °F - 60.8 °F 100% 29.95 in 1.5 mi Calm Calm - N/A   Overcast
8:34 AM 60.8 °F - 60.8 °F 100% 29.95 in 3.0 mi Calm Calm - N/A   Overcast
8:52 AM 61.0 °F - 61.0 °F 100% 29.96 in 3.0 mi Calm Calm - N/A   Overcast
9:21 AM 64.4 °F - 62.6 °F 94% 29.95 in 6.0 mi Calm Calm - N/A   Overcast
9:52 AM 66.9 °F - 63.0 °F 87% 29.96 in 10.0 mi Calm Calm - N/A   Overcast
10:52 AM 73.9 °F - 64.9 °F 73% 29.95 in 10.0 mi North 3.5 mph - N/A   Overcast
11:52 AM 79.0 °F - 63.0 °F 58% 29.92 in 10.0 mi West 3.5 mph - N/A   Clear
12:52 PM 82.0 °F 83.4 °F 64.0 °F 54% 29.91 in 10.0 mi Calm Calm - N/A   Partly Cloudy
1:52 PM 82.9 °F 83.7 °F 62.1 °F 49% 29.90 in 10.0 mi Calm Calm - N/A   Scattered Clouds
2:52 PM 84.0 °F 84.5 °F 62.1 °F 47% 29.88 in 10.0 mi Calm Calm - N/A   Partly Cloudy
3:14 PM 86.0 °F 85.4 °F 59.0 °F 40% 29.89 in 10.0 mi Calm Calm - N/A Thunderstorm Partly Cloudy
3:52 PM 75.9 °F - 64.0 °F 67% 29.91 in 10.0 mi North 9.2 mph 19.6 mph N/A Thunderstorm Thunderstorm
4:52 PM 75.9 °F - 64.0 °F 67% 29.91 in 10.0 mi Calm Calm - N/A Thunderstorm Clear
5:07 PM 77.0 °F - 64.4 °F 65% 29.92 in 10.0 mi Calm Calm - N/A   Clear
5:52 PM 75.0 °F - 66.0 °F 73% 29.94 in 10.0 mi Calm Calm - N/A   Partly Cloudy
6:52 PM 72.0 °F - 64.9 °F 78% 29.94 in 10.0 mi Calm Calm - N/A   Partly Cloudy
7:52 PM 69.1 °F - 64.9 °F 87% 29.97 in 10.0 mi Calm Calm - N/A   Scattered Clouds
8:44 PM 69.8 °F - 64.4 °F 83% 30.02 in 10.0 mi ESE 5.8 mph 17.3 mph N/A   Overcast
8:52 PM 68.0 °F - 64.0 °F 87% 30.02 in 3.0 mi SE 8.1 mph - 0.06 in Rain Heavy Rain
9:08 PM 66.2 °F - 64.4 °F 94% 30.02 in 8.0 mi SSE 3.5 mph - 0.01 in Rain Light Rain
9:52 PM 66.0 °F - 64.0 °F 93% 30.03 in 10.0 mi SE 4.6 mph - 0.01 in   Mostly Cloudy
10:02 PM 66.2 °F - 64.4 °F 94% 30.03 in 10.0 mi NE 3.5 mph - N/A   Mostly Cloudy
10:52 PM 66.0 °F - 64.0 °F 93% 30.02 in 10.0 mi Calm Calm - N/A   Overcast
11:36 PM 64.4 °F - 62.6 °F 94% 30.03 in 10.0 mi Calm Calm - N/A   Mostly Cloudy
11:52 PM 63.0 °F - 62.1 °F 97% 30.02 in 10.0 mi Calm Calm - N/A   Partly Cloudy